,,Stat5,,Stat1,,Stat2,,Stat3,,Stat4,,Wind1,,Wind1,
time,status,PA1M_AVG,status,PR1M_SUM,status,RH1M_AVG,status,SR1M_AVG,status,TA1M_AVG,status,W1dAve1m,status,W1sAve1m,
2000-07-12, 00:00:01,VALID,918.11,VALID,0,VALID,97.5931,VALID,-0.0169808,VALID,17.4533,VALID,220,VALID,0,
2000-07-12, 00:01:00,VALID,918.103,VALID,0,VALID,97.5829,VALID,-0.0339617,VALID,17.4508,VALID,220,VALID,0,
2000-07-12, 00:02:00,VALID,918.083,VALID,0,VALID,97.5842,VALID,0,VALID,17.4478,VALID,216,VALID,0,
2000-07-12, 00:03:00,VALID,918.079,VALID,0,VALID,96.956,VALID,0,VALID,17.367,VALID,207,VALID,0,
2000-07-12, 00:04:00,VALID,918.072,VALID,0,VALID,96.2554,VALID,0,VALID,17.228,VALID,170,VALID,0,
2000-07-12, 00:05:00,VALID,918.066,VALID,0,VALID,96.1842,VALID,-0.0339617,VALID,17.1339,VALID,167,VALID,0,
2000-07-12, 00:06:00,VALID,918.068,VALID,0,VALID,96.5567,VALID,-0.0339617,VALID,17.0928,VALID,167,VALID,0,
2000-07-12, 00:07:00,VALID,918.065,VALID,0,VALID,96.8836,VALID,-0.0339617,VALID,17.0898,VALID,167,VALID,0,
2000-07-12, 00:08:00,VALID,918.066,VALID,0,VALID,97.0501,VALID,-0.0169808,VALID,17.0541,VALID,167,VALID,0,
2000-07-12, 00:09:00,VALID,918.063,VALID,0,VALID,97.2536,VALID,0,VALID,17.0444,VALID,167,VALID,0,
2000-07-12, 00:10:00,VALID,918.066,VALID,0,VALID,97.2752,VALID,0,VALID,17.0088,VALID,167,VALID,0,
2000-07-12, 00:11:00,VALID,918.054,VALID,0,VALID,97.4647,VALID,-0.0509425,VALID,16.983,VALID,167,VALID,0,
2000-07-12, 00:12:00,VALID,918.065,VALID,0,VALID,97.7508,VALID,-0.0169808,VALID,16.9989,VALID,169,VALID,0,
2000-07-12, 00:13:00,VALID,918.032,VALID,0,VALID,97.7381,VALID,-0.0339617,VALID,16.9865,VALID,190,VALID,0,
2000-07-12, 00:14:00,VALID,918.014,VALID,0,VALID,97.8271,VALID,-0.0509425,VALID,16.9604,VALID,207,VALID,0,
2000-07-12, 00:15:00,VALID,917.998,VALID,0,VALID,97.8779,VALID,-0.0339617,VALID,16.9602,VALID,207,VALID,0,
2000-07-12, 00:16:00,VALID,917.984,VALID,0,VALID,97.9581,VALID,-0.0339617,VALID,16.9669,VALID,208,VALID,0,
2000-07-12, 00:17:00,VALID,917.96,VALID,0,VALID,98.2887,VALID,-0.0169808,VALID,17.0183,VALID,208,VALID,0,
2000-07-12, 00:18:00,VALID,917.952,VALID,0,VALID,98.2976,VALID,0,VALID,17.0635,VALID,208,VALID,0,
2000-07-12, 00:19:00,VALID,917.935,VALID,0,VALID,97.6503,VALID,-0.0339617,VALID,16.9701,VALID,205,VALID,0,
2000-07-12, 00:20:00,VALID,917.921,VALID,0,VALID,97.4863,VALID,-0.0169808,VALID,16.9283,VALID,177,VALID,0,
2000-07-12, 00:21:00,VALID,917.913,VALID,0,VALID,97.9237,VALID,0,VALID,16.9699,VALID,165,VALID,0,
2000-07-12, 00:22:00,VALID,917.911,VALID,0,VALID,98.1094,VALID,0,VALID,17.005,VALID,165,VALID,0,
2000-07-12, 00:23:00,VALID,917.909,VALID,0,VALID,98.234,VALID,0,VALID,17.0278,VALID,165,VALID,0,
2000-07-12, 00:24:00,VALID,917.904,VALID,0,VALID,98.4006,VALID,0,VALID,17.0956,VALID,165,VALID,0,
2000-07-12, 00:25:00,VALID,917.899,VALID,0,VALID,98.2302,VALID,0,VALID,17.0859,VALID,165,VALID,0,
2000-07-12, 00:26:00,VALID,917.904,VALID,0,VALID,98.1717,VALID,-0.0169808,VALID,17.073,VALID,165,VALID,0,
2000-07-12, 00:27:00,VALID,917.906,VALID,0,VALID,98.1717,VALID,0,VALID,17.076,VALID,165,VALID,0,
2000-07-12, 00:28:00,VALID,917.892,VALID,0,VALID,97.5702,VALID,0,VALID,16.9989,VALID,164,VALID,0,
2000-07-12, 00:29:00,VALID,917.906,VALID,0,VALID,97.1252,VALID,0,VALID,16.9342,VALID,161,VALID,0,
2000-07-12, 00:30:00,VALID,917.908,VALID,0,VALID,96.8836,VALID,0,VALID,16.8827,VALID,159,VALID,0,
2000-07-12, 00:31:00,VALID,917.914,VALID,0,VALID,96.9077,VALID,-0.0169808,VALID,16.8563,VALID,159,VALID,0,
2000-07-12, 00:32:00,VALID,917.925,VALID,0,VALID,97.0972,VALID,0.0169808,VALID,16.876,VALID,159,VALID,0,
2000-07-12, 00:33:00,VALID,917.937,VALID,0,VALID,97.3006,VALID,0,VALID,16.8819,VALID,159,VALID,0,
2000-07-12, 00:34:00,VALID,917.918,VALID,0,VALID,98.1119,VALID,-0.0169808,VALID,16.9893,VALID,159,VALID,0,
2000-07-12, 00:35:00,VALID,917.926,VALID,0,VALID,98.7795,VALID,0.0169808,VALID,17.1701,VALID,159,VALID,0,
2000-07-12, 00:36:00,VALID,917.916,VALID,0,VALID,98.6943,VALID,0,VALID,17.2603,VALID,159,VALID,0,
2000-07-12, 00:37:00,VALID,917.923,VALID,0,VALID,98.5341,VALID,0,VALID,17.2342,VALID,159,VALID,0,
2000-07-12, 00:38:00,VALID,917.914,VALID,0,VALID,98.4896,VALID,0,VALID,17.225,VALID,159,VALID,0,
2000-07-12, 00:39:00,VALID,917.902,VALID,0,VALID,98.3688,VALID,0.0169808,VALID,17.1886,VALID,159,VALID,0,
2000-07-12, 00:40:00,VALID,917.903,VALID,0,VALID,98.2225,VALID,0.0509425,VALID,17.1565,VALID,159,VALID,0,
2000-07-12, 00:41:00,VALID,917.902,VALID,0,VALID,98.2302,VALID,0.0169808,VALID,17.1731,VALID,159,VALID,0,
2000-07-12, 00:42:00,VALID,917.883,VALID,0,VALID,98.4057,VALID,0,VALID,17.231,VALID,159,VALID,0,
2000-07-12, 00:43:00,VALID,917.875,VALID,0,VALID,98.7871,VALID,0,VALID,17.3179,VALID,159,VALID,0,
2000-07-12, 00:44:00,VALID,917.849,VALID,0,VALID,98.8927,VALID,0,VALID,17.4118,VALID,171,VALID,0,
2000-07-12, 00:45:00,VALID,917.834,VALID,0,VALID,98.7185,VALID,0,VALID,17.4342,VALID,198,VALID,0,
2000-07-12, 00:46:00,VALID,917.819,VALID,0,VALID,98.4896,VALID,0.0169808,VALID,17.3888,VALID,198,VALID,0,
2000-07-12, 00:47:00,VALID,917.843,VALID,0,VALID,98.2289,VALID,0.0169808,VALID,17.3405,VALID,181,VALID,0.00120192,
2000-07-12, 00:48:00,VALID,917.85,VALID,0,VALID,98.5277,VALID,0.0339617,VALID,17.3207,VALID,170,VALID,0.851351,
2000-07-12, 00:49:00,VALID,917.861,VALID,0,VALID,98.7884,VALID,0.0339617,VALID,17.4406,VALID,172,VALID,0.730785,
2000-07-12, 00:50:00,VALID,917.877,VALID,0,VALID,98.2989,VALID,0.0169808,VALID,17.4017,VALID,185,VALID,0.664444,
2000-07-12, 00:51:00,VALID,917.873,VALID,0,VALID,97.9962,VALID,0.0169808,VALID,17.3152,VALID,191,VALID,0.842014,
2000-07-12, 00:52:00,VALID,917.862,VALID,0,VALID,98.2963,VALID,0.0339617,VALID,17.3111,VALID,189,VALID,0.747852,
2000-07-12, 00:53:00,VALID,917.856,VALID,0,VALID,98.3726,VALID,0.0169808,VALID,17.347,VALID,203,VALID,0.75601,
2000-07-12, 00:54:00,VALID,917.842,VALID,0,VALID,98.2874,VALID,0,VALID,17.3212,VALID,200,VALID,0.819727,
2000-07-12, 00:55:00,VALID,917.832,VALID,0,VALID,98.4362,VALID,0,VALID,17.3375,VALID,196,VALID,1.04235,
2000-07-12, 00:56:00,VALID,917.82,VALID,0,VALID,98.4031,VALID,-0.0509425,VALID,17.3511,VALID,194,VALID,0.953536,
2000-07-12, 00:57:00,VALID,917.802,VALID,0,VALID,98.4591,VALID,-0.101885,VALID,17.3619,VALID,197,VALID,1.19573,
2000-07-12, 00:58:00,VALID,917.795,VALID,0,VALID,98.5341,VALID,-0.101885,VALID,17.3933,VALID,200,VALID,1.02031,
2000-07-12, 00:59:00,VALID,917.78,VALID,0,VALID,98.4998,VALID,-0.101885,VALID,17.4228,VALID,198,VALID,1.03711,
2000-07-12, 01:00:00,VALID,917.77,VALID,0,VALID,98.4362,VALID,-0.101885,VALID,17.465,VALID,204,VALID,1.03484,
2000-07-12, 01:01:00,VALID,917.768,VALID,0,VALID,98.4324,VALID,-0.0679233,VALID,17.5132,VALID,213,VALID,0.842722,
2000-07-12, 01:02:00,VALID,917.764,VALID,0,VALID,98.2899,VALID,-0.101885,VALID,17.5421,VALID,212,VALID,0.740767,
2000-07-12, 01:03:00,VALID,917.754,VALID,0,VALID,98.0852,VALID,-0.101885,VALID,17.5614,VALID,201,VALID,0.638775,
2000-07-12, 01:04:00,VALID,917.762,VALID,0,VALID,97.9046,VALID,-0.101885,VALID,17.5808,VALID,193,VALID,0.90293,
2000-07-12, 01:05:00,VALID,917.757,VALID,0,VALID,97.6974,VALID,-0.0679233,VALID,17.5836,VALID,195,VALID,0.808183,
2000-07-12, 01:06:00,VALID,917.775,VALID,0,VALID,97.616,VALID,-0.101885,VALID,17.5843,VALID,196,VALID,0.998972,
2000-07-12, 01:07:00,VALID,917.804,VALID,0,VALID,97.5664,VALID,-0.101885,VALID,17.5937,VALID,196,VALID,1.09034,
2000-07-12, 01:08:00,VALID,917.808,VALID,0,VALID,97.3312,VALID,-0.0679233,VALID,17.5841,VALID,201,VALID,1.01042,
2000-07-12, 01:09:00,VALID,917.804,VALID,0,VALID,97.3324,VALID,-0.0679233,VALID,17.6,VALID,203,VALID,1.09457,
2000-07-12, 01:10:00,VALID,917.805,VALID,0,VALID,97.1226,VALID,-0.101885,VALID,17.6161,VALID,197,VALID,1.22882,
2000-07-12, 01:11:00,VALID,917.8,VALID,0,VALID,96.9751,VALID,-0.0849042,VALID,17.6514,VALID,194,VALID,1.38887,
2000-07-12, 01:12:00,VALID,917.79,VALID,0,VALID,96.6216,VALID,-0.0339617,VALID,17.6706,VALID,189,VALID,1.23661,
2000-07-12, 01:13:00,VALID,917.79,VALID,0,VALID,96.3889,VALID,-0.0679233,VALID,17.6936,VALID,185,VALID,1.39928,
2000-07-12, 01:14:00,VALID,917.786,VALID,0,VALID,96.2935,VALID,-0.0849042,VALID,17.6936,VALID,185,VALID,1.58573,
2000-07-12, 01:15:00,VALID,917.788,VALID,0,VALID,96.3431,VALID,-0.0509425,VALID,17.7031,VALID,180,VALID,1.41341,
2000-07-12, 01:16:00,VALID,917.775,VALID,0,VALID,96.2299,VALID,-0.0339617,VALID,17.719,VALID,185,VALID,1.41753,
2000-07-12, 01:17:00,VALID,917.779,VALID,0,VALID,96.221,VALID,-0.0509425,VALID,17.7423,VALID,184,VALID,1.26994,
2000-07-12, 01:18:00,VALID,917.768,VALID,0,VALID,96.0176,VALID,-0.0509425,VALID,17.7324,VALID,181,VALID,1.06138,
2000-07-12, 01:19:00,VALID,917.771,VALID,0,VALID,96.0417,VALID,-0.0849042,VALID,17.7264,VALID,186,VALID,1.13742,
2000-07-12, 01:20:00,VALID,917.778,VALID,0,VALID,95.8981,VALID,-0.0849042,VALID,17.7098,VALID,182,VALID,1.09918,
2000-07-12, 01:21:00,VALID,917.764,VALID,0,VALID,95.7442,VALID,-0.101885,VALID,17.6872,VALID,187,VALID,1.0019,
2000-07-12, 01:22:00,VALID,917.754,VALID,0,VALID,95.9082,VALID,-0.0679233,VALID,17.639,VALID,189,VALID,0.968339,
2000-07-12, 01:23:00,VALID,917.752,VALID,0,VALID,95.982,VALID,-0.0679233,VALID,17.6133,VALID,196,VALID,0.872327,
2000-07-12, 01:24:00,VALID,917.734,VALID,0,VALID,96.0545,VALID,-0.0849042,VALID,17.5675,VALID,202,VALID,0.835938,
2000-07-12, 01:25:00,VALID,917.724,VALID,0,VALID,96.1346,VALID,-0.101885,VALID,17.555,VALID,211,VALID,0.822316,
2000-07-12, 01:26:00,VALID,917.705,VALID,0,VALID,96.2198,VALID,-0.0339617,VALID,17.5384,VALID,207,VALID,0.703926,
2000-07-12, 01:27:00,VALID,917.705,VALID,0,VALID,96.2363,VALID,-0.0339617,VALID,17.516,VALID,211,VALID,0.749789,
2000-07-12, 01:28:00,VALID,917.697,VALID,0,VALID,96.2045,VALID,-0.0169808,VALID,17.4964,VALID,216,VALID,0.96543,
2000-07-12, 01:29:00,VALID,917.715,VALID,0,VALID,96.4601,VALID,-0.0169808,VALID,17.4609,VALID,209,VALID,0.839154,
2000-07-12, 01:30:00,VALID,917.729,VALID,0,VALID,96.2185,VALID,-0.0339617,VALID,17.442,VALID,200,VALID,0.698047,
2000-07-12, 01:31:00,VALID,917.721,VALID,0,VALID,96.5542,VALID,-0.0339617,VALID,17.4159,VALID,196,VALID,0.799679,
2000-07-12, 01:32:00,VALID,917.724,VALID,0,VALID,96.7437,VALID,-0.0509425,VALID,17.3963,VALID,186,VALID,0.785567,
2000-07-12, 01:33:00,VALID,917.717,VALID,0,VALID,97.0171,VALID,-0.0169808,VALID,17.3991,VALID,183,VALID,0.841488,
2000-07-12, 01:34:00,VALID,917.706,VALID,0,VALID,96.8352,VALID,-0.0169808,VALID,17.3802,VALID,181,VALID,0.833984,
2000-07-12, 01:35:00,VALID,917.682,VALID,0,VALID,97.2218,VALID,-0.0169808,VALID,17.4032,VALID,186,VALID,0.857422,
2000-07-12, 01:36:00,VALID,917.672,VALID,0,VALID,97.3413,VALID,0,VALID,17.4284,VALID,192,VALID,1.10036,
2000-07-12, 01:37:00,VALID,917.651,VALID,0,VALID,96.984,VALID,-0.0339617,VALID,17.4544,VALID,186,VALID,1.07484,
2000-07-12, 01:38:00,VALID,917.633,VALID,0,VALID,96.7259,VALID,-0.0339617,VALID,17.4738,VALID,179,VALID,0.992989,
2000-07-12, 01:39:00,VALID,917.619,VALID,0,VALID,96.2859,VALID,0,VALID,17.4872,VALID,179,VALID,0.896835,
2000-07-12, 01:40:00,VALID,917.608,VALID,0,VALID,95.9197,VALID,-0.0169808,VALID,17.4575,VALID,183,VALID,0.710515,
2000-07-12, 01:41:00,VALID,917.596,VALID,0,VALID,95.8815,VALID,-0.0169808,VALID,17.4254,VALID,184,VALID,0.867188,
2000-07-12, 01:42:00,VALID,917.589,VALID,0,VALID,95.9871,VALID,0,VALID,17.3767,VALID,194,VALID,0.783854,
2000-07-12, 01:43:00,VALID,917.597,VALID,0,VALID,95.9502,VALID,-0.0339617,VALID,17.335,VALID,210,VALID,0.823785,
2000-07-12, 01:44:00,VALID,917.581,VALID,0,VALID,95.9222,VALID,-0.0509425,VALID,17.2964,VALID,223,VALID,0.787891,
2000-07-12, 01:45:00,VALID,917.574,VALID,0,VALID,96.0545,VALID,-0.0509425,VALID,17.2415,VALID,218,VALID,1.0076,
2000-07-12, 01:46:00,VALID,917.564,VALID,0,VALID,96.5555,VALID,-0.0679233,VALID,17.2316,VALID,220,VALID,1.03546,
2000-07-12, 01:47:00,VALID,917.556,VALID,0,VALID,96.6814,VALID,-0.0339617,VALID,17.2319,VALID,212,VALID,0.846834,
2000-07-12, 01:48:00,VALID,917.543,VALID,0,VALID,96.6648,VALID,-0.0509425,VALID,17.2157,VALID,219,VALID,1.03563,
2000-07-12, 01:49:00,VALID,917.531,VALID,0,VALID,96.9268,VALID,-0.0509425,VALID,17.2319,VALID,219,VALID,0.866787,
2000-07-12, 01:50:00,VALID,917.529,VALID,0,VALID,97.0896,VALID,-0.0509425,VALID,17.2706,VALID,212,VALID,1.18391,
2000-07-12, 01:51:00,VALID,917.534,VALID,0,VALID,97.0552,VALID,-0.0679233,VALID,17.3126,VALID,217,VALID,1.26309,
2000-07-12, 01:52:00,VALID,917.529,VALID,0,VALID,96.909,VALID,-0.0169808,VALID,17.3707,VALID,218,VALID,1.0613,
2000-07-12, 01:53:00,VALID,917.532,VALID,0,VALID,96.8174,VALID,-0.0339617,VALID,17.4254,VALID,212,VALID,1.11472,
2000-07-12, 01:54:00,VALID,917.533,VALID,0,VALID,96.3978,VALID,0,VALID,17.4768,VALID,217,VALID,0.900549,
2000-07-12, 01:55:00,VALID,917.52,VALID,0,VALID,96.235,VALID,0,VALID,17.525,VALID,214,VALID,1.13862,
2000-07-12, 01:56:00,VALID,917.507,VALID,0,VALID,96.1626,VALID,-0.0169808,VALID,17.5901,VALID,206,VALID,1.42096,
2000-07-12, 01:57:00,VALID,917.487,VALID,0,VALID,95.9235,VALID,0,VALID,17.6639,VALID,209,VALID,1.33574,
2000-07-12, 01:58:00,VALID,917.474,VALID,0,VALID,95.4352,VALID,0,VALID,17.7065,VALID,204,VALID,1.0074,
2000-07-12, 01:59:00,VALID,917.453,VALID,0,VALID,95.1173,VALID,0,VALID,17.6962,VALID,199,VALID,0.947266,
2000-07-12, 02:00:00,VALID,917.436,VALID,0,VALID,95.2635,VALID,-0.0169808,VALID,17.6934,VALID,203,VALID,1.11867,
2000-07-12, 02:01:00,VALID,917.42,VALID,0,VALID,95.2801,VALID,-0.0169808,VALID,17.6775,VALID,203,VALID,0.87207,
2000-07-12, 02:02:00,VALID,917.426,VALID,0,VALID,95.3729,VALID,-0.0339617,VALID,17.645,VALID,202,VALID,0.879112,
2000-07-12, 02:03:00,VALID,917.415,VALID,0,VALID,95.5573,VALID,-0.0339617,VALID,17.6383,VALID,203,VALID,0.741132,
2000-07-12, 02:04:00,VALID,917.422,VALID,0,VALID,95.5496,VALID,-0.0339617,VALID,17.6189,VALID,206,VALID,0.810096,
2000-07-12, 02:05:00,VALID,917.402,VALID,0,VALID,95.6768,VALID,-0.0169808,VALID,17.6127,VALID,201,VALID,0.995393,
2000-07-12, 02:06:00,VALID,917.414,VALID,0,VALID,95.556,VALID,-0.0169808,VALID,17.5901,VALID,199,VALID,0.946752,
2000-07-12, 02:07:00,VALID,917.411,VALID,0,VALID,95.4886,VALID,0,VALID,17.5513,VALID,198,VALID,0.708615,
2000-07-12, 02:08:00,VALID,917.412,VALID,0,VALID,95.2445,VALID,0,VALID,17.516,VALID,196,VALID,0.864984,
2000-07-12, 02:09:01,VALID,917.421,VALID,0,VALID,95.2012,VALID,-0.0339617,VALID,17.4833,VALID,203,VALID,0.700802,
2000-07-12, 02:10:01,VALID,917.432,VALID,0,VALID,94.877,VALID,-0.0339617,VALID,17.4122,VALID,199,VALID,0.736486,
2000-07-12, 02:11:00,VALID,917.412,VALID,0,VALID,94.5934,VALID,0.0509425,VALID,17.3474,VALID,209,VALID,0.604802,
2000-07-12, 02:12:00,VALID,917.409,VALID,0,VALID,94.4993,VALID,0.0509425,VALID,17.2467,VALID,218,VALID,0.613932,
2000-07-12, 02:13:01,VALID,917.379,VALID,0,VALID,94.8057,VALID,0.0679233,VALID,17.1561,VALID,222,VALID,0.776367,
2000-07-12, 02:14:00,VALID,917.34,VALID,0,VALID,95.1224,VALID,0.101885,VALID,17.0816,VALID,222,VALID,0.698317,
2000-07-12, 02:15:01,VALID,917.319,VALID,0,VALID,95.8141,VALID,0.0679233,VALID,17.0269,VALID,212,VALID,0.64375,
2000-07-12, 02:16:01,VALID,917.282,VALID,0,VALID,96.0774,VALID,0.0679233,VALID,16.9848,VALID,199,VALID,0.424753,
2000-07-12, 02:17:01,VALID,917.258,VALID,0,VALID,96.0863,VALID,0.0679233,VALID,16.9402,VALID,181,VALID,0.648026,
2000-07-12, 02:18:00,VALID,917.232,VALID,0,VALID,95.8014,VALID,0.0679233,VALID,16.856,VALID,166,VALID,0.782095,
2000-07-12, 02:19:00,VALID,917.23,VALID,0,VALID,95.7035,VALID,0.0679233,VALID,16.7588,VALID,161,VALID,0.600977,
2000-07-12, 02:20:00,VALID,917.226,VALID,0,VALID,95.9349,VALID,0.0679233,VALID,16.688,VALID,155,VALID,0.10395,
2000-07-12, 02:21:00,VALID,917.227,VALID,0,VALID,97.0768,VALID,0.0849042,VALID,16.7009,VALID,161,VALID,0,
2000-07-12, 02:22:00,VALID,917.212,VALID,0,VALID,98.0789,VALID,0.0849042,VALID,16.7979,VALID,190,VALID,0,
2000-07-12, 02:23:01,VALID,917.198,VALID,0,VALID,98.1132,VALID,0.0679233,VALID,16.8625,VALID,180,VALID,0,
2000-07-12, 02:24:00,VALID,917.186,VALID,0,VALID,97.8767,VALID,0.101885,VALID,16.8496,VALID,179,VALID,0,
2000-07-12, 02:25:00,VALID,917.176,VALID,0,VALID,97.8512,VALID,0.0849042,VALID,16.8235,VALID,175,VALID,0,
2000-07-12, 02:26:01,VALID,917.158,VALID,0,VALID,98.2772,VALID,0.0509425,VALID,16.876,VALID,177,VALID,0,
2000-07-12, 02:27:01,VALID,917.15,VALID,0,VALID,98.4553,VALID,-0.0509425,VALID,16.9385,VALID,186,VALID,0.433799,
2000-07-12, 02:28:00,VALID,917.145,VALID,0,VALID,98.5125,VALID,-0.0849042,VALID,17,VALID,194,VALID,1.38442,
2000-07-12, 02:29:00,VALID,917.149,VALID,0,VALID,98.4184,VALID,-0.0339617,VALID,17.0446,VALID,196,VALID,1.4395,
2000-07-12, 02:30:00,VALID,917.156,VALID,0,VALID,98.1221,VALID,-0.0849042,VALID,17.0872,VALID,202,VALID,1.2391,
2000-07-12, 02:31:00,VALID,917.168,VALID,0,VALID,98.0611,VALID,-0.0679233,VALID,17.1322,VALID,196,VALID,1.48808,
2000-07-12, 02:32:00,VALID,917.17,VALID,0,VALID,97.8169,VALID,-0.0339617,VALID,17.2002,VALID,200,VALID,1.22461,
2000-07-12, 02:33:00,VALID,917.174,VALID,0,VALID,97.5321,VALID,-0.0509425,VALID,17.2067,VALID,207,VALID,1.09576,
2000-07-12, 02:34:00,VALID,917.172,VALID,0,VALID,97.4431,VALID,-0.0679233,VALID,17.2321,VALID,207,VALID,1.1193,
2000-07-12, 02:35:00,VALID,917.16,VALID,0,VALID,97.1786,VALID,-0.0849042,VALID,17.2456,VALID,206,VALID,0.855674,
2000-07-12, 02:36:00,VALID,917.155,VALID,0,VALID,96.895,VALID,-0.0339617,VALID,17.2226,VALID,222,VALID,1.09418,
2000-07-12, 02:37:01,VALID,917.134,VALID,0,VALID,96.8772,VALID,-0.0849042,VALID,17.1866,VALID,211,VALID,0.947115,
2000-07-12, 02:38:00,VALID,917.14,VALID,0,VALID,96.8162,VALID,-0.0679233,VALID,17.1707,VALID,208,VALID,0.837171,
2000-07-12, 02:39:01,VALID,917.128,VALID,0,VALID,96.792,VALID,-0.101885,VALID,17.1615,VALID,204,VALID,1.09085,
2000-07-12, 02:40:01,VALID,917.15,VALID,0,VALID,97.0984,VALID,-0.0679233,VALID,17.1709,VALID,198,VALID,1.43429,
2000-07-12, 02:41:00,VALID,917.151,VALID,0,VALID,97.1061,VALID,0.0679233,VALID,17.1866,VALID,202,VALID,1.01563,
2000-07-12, 02:42:00,VALID,917.14,VALID,0,VALID,97.087,VALID,0.0339617,VALID,17.1759,VALID,197,VALID,1.11423,
2000-07-12, 02:43:00,VALID,917.151,VALID,0,VALID,97.0743,VALID,0,VALID,17.1897,VALID,202,VALID,1.01933,
2000-07-12, 02:44:01,VALID,917.169,VALID,0,VALID,97.176,VALID,0.0169808,VALID,17.1961,VALID,198,VALID,0.87685,
2000-07-12, 02:45:00,VALID,917.183,VALID,0,VALID,97.0629,VALID,0.0169808,VALID,17.1894,VALID,199,VALID,0.516959,
2000-07-12, 02:46:01,VALID,917.175,VALID,0,VALID,96.9598,VALID,0,VALID,17.1864,VALID,205,VALID,0.3127,
2000-07-12, 02:47:00,VALID,917.172,VALID,0,VALID,96.9115,VALID,0,VALID,17.1505,VALID,203,VALID,0.334135,
2000-07-12, 02:48:01,VALID,917.159,VALID,0,VALID,96.8874,VALID,0,VALID,17.1247,VALID,193,VALID,0.874789,
2000-07-12, 02:49:00,VALID,917.145,VALID,0,VALID,96.9929,VALID,0.0679233,VALID,17.1148,VALID,189,VALID,1.00059,
2000-07-12, 02:50:01,VALID,917.108,VALID,0,VALID,97.4837,VALID,0.0509425,VALID,17.1275,VALID,188,VALID,1.12063,
2000-07-12, 02:51:00,VALID,917.086,VALID,0,VALID,97.4265,VALID,0.0169808,VALID,17.1531,VALID,178,VALID,1.0957,
2000-07-12, 02:52:00,VALID,917.05,VALID,0,VALID,97.5918,VALID,0,VALID,17.2088,VALID,179,VALID,1.20152,
2000-07-12, 02:53:00,VALID,917.014,VALID,0,VALID,97.5168,VALID,0,VALID,17.2411,VALID,178,VALID,1.15913,
2000-07-12, 02:54:00,VALID,916.995,VALID,0,VALID,97.307,VALID,0.0169808,VALID,17.2568,VALID,181,VALID,1.0259,
2000-07-12, 02:55:01,VALID,916.977,VALID,0,VALID,97.1633,VALID,0.0169808,VALID,17.2736,VALID,178,VALID,1.04219,
2000-07-12, 02:56:00,VALID,916.957,VALID,0,VALID,97.1557,VALID,0.0169808,VALID,17.2665,VALID,176,VALID,0.99668,
2000-07-12, 02:57:01,VALID,916.937,VALID,0,VALID,97.1226,VALID,0.0339617,VALID,17.2732,VALID,179,VALID,1.05389,
2000-07-12, 02:58:00,VALID,916.921,VALID,0,VALID,97.1417,VALID,0.0509425,VALID,17.2732,VALID,184,VALID,1.0146,
2000-07-12, 02:59:01,VALID,916.92,VALID,0,VALID,96.7627,VALID,0.0509425,VALID,17.2665,VALID,194,VALID,0.905449,
2000-07-12, 03:00:00,VALID,916.917,VALID,0,VALID,96.6051,VALID,0.0339617,VALID,17.2181,VALID,193,VALID,0.936298,
2000-07-12, 03:01:01,VALID,916.906,VALID,0,VALID,96.8429,VALID,0.0679233,VALID,17.1953,VALID,195,VALID,1.07686,
2000-07-12, 03:02:00,VALID,916.91,VALID,0,VALID,96.923,VALID,0,VALID,17.1826,VALID,195,VALID,0.953325,
2000-07-12, 03:03:00,VALID,916.895,VALID,0,VALID,97.0234,VALID,0.0169808,VALID,17.1634,VALID,187,VALID,0.909505,
2000-07-12, 03:04:00,VALID,916.89,VALID,0,VALID,97.0781,VALID,0.0339617,VALID,17.1604,VALID,184,VALID,0.94987,
2000-07-12, 03:05:00,VALID,916.88,VALID,0,VALID,97.1658,VALID,0,VALID,17.1376,VALID,175,VALID,1.05254,
2000-07-12, 03:06:00,VALID,916.874,VALID,0,VALID,97.1124,VALID,0.0169808,VALID,17.1154,VALID,167,VALID,1.11022,
2000-07-12, 03:07:00,VALID,916.882,VALID,0,VALID,97.1887,VALID,0.0509425,VALID,17.0889,VALID,160,VALID,0.982372,
2000-07-12, 03:08:00,VALID,916.871,VALID,0,VALID,97.2701,VALID,0.0339617,VALID,17.0633,VALID,165,VALID,1.06003,
2000-07-12, 03:09:00,VALID,916.854,VALID,0,VALID,97.4062,VALID,0.0509425,VALID,17.0603,VALID,163,VALID,1.16959,
2000-07-12, 03:10:00,VALID,916.841,VALID,0,VALID,97.4685,VALID,0.0339617,VALID,17.0566,VALID,170,VALID,1.26823,
2000-07-12, 03:11:00,VALID,916.813,VALID,0,VALID,97.3858,VALID,-0.0169808,VALID,17.064,VALID,172,VALID,1.30363,
2000-07-12, 03:12:00,VALID,916.808,VALID,0,VALID,97.279,VALID,-0.0849042,VALID,17.0581,VALID,167,VALID,1.39277,
2000-07-12, 03:13:00,VALID,916.804,VALID,0,VALID,97.1506,VALID,-0.0679233,VALID,17.0743,VALID,166,VALID,1.17348,
2000-07-12, 03:14:00,VALID,916.804,VALID,0,VALID,97.0997,VALID,-0.0679233,VALID,17.0932,VALID,179,VALID,1.13877,
2000-07-12, 03:15:01,VALID,916.812,VALID,0,VALID,97.0285,VALID,-0.0849042,VALID,17.1451,VALID,184,VALID,1.28505,
2000-07-12, 03:16:00,VALID,916.803,VALID,0,VALID,96.7004,VALID,-0.0849042,VALID,17.1875,VALID,198,VALID,1.44351,
2000-07-12, 03:17:00,VALID,916.786,VALID,0,VALID,96.4448,VALID,-0.0339617,VALID,17.2355,VALID,195,VALID,1.54366,
2000-07-12, 03:18:00,VALID,916.753,VALID,0,VALID,96.1168,VALID,-0.0339617,VALID,17.2904,VALID,182,VALID,1.21995,
2000-07-12, 03:19:00,VALID,916.737,VALID,0,VALID,96.099,VALID,-0.0509425,VALID,17.3259,VALID,179,VALID,1.04174,
2000-07-12, 03:20:01,VALID,916.728,VALID,0,VALID,95.7531,VALID,-0.101885,VALID,17.3619,VALID,170,VALID,0.812066,
2000-07-12, 03:21:01,VALID,916.73,VALID,0,VALID,95.8256,VALID,-0.101885,VALID,17.3808,VALID,183,VALID,1.1345,
2000-07-12, 03:22:00,VALID,916.739,VALID,0,VALID,95.6704,VALID,-0.0849042,VALID,17.4327,VALID,186,VALID,1.07852,
2000-07-12, 03:23:01,VALID,916.757,VALID,0,VALID,95.1974,VALID,-0.0339617,VALID,17.5038,VALID,188,VALID,0.974507,
2000-07-12, 03:24:00,VALID,916.791,VALID,0,VALID,94.587,VALID,-0.0339617,VALID,17.5324,VALID,196,VALID,0.948902,
2000-07-12, 03:25:00,VALID,916.81,VALID,0,VALID,94.2373,VALID,-0.0339617,VALID,17.5298,VALID,206,VALID,0.817308,
2000-07-12, 03:26:00,VALID,916.814,VALID,0,VALID,94.4904,VALID,-0.0339617,VALID,17.4809,VALID,207,VALID,0.663862,
2000-07-12, 03:27:01,VALID,916.818,VALID,0,VALID,94.8553,VALID,-0.0509425,VALID,17.4583,VALID,191,VALID,0.297697,
2000-07-12, 03:28:00,VALID,916.801,VALID,0,VALID,94.4103,VALID,-0.0679233,VALID,17.4131,VALID,170,VALID,0.384291,
2000-07-12, 03:29:01,VALID,916.778,VALID,0,VALID,92.1367,VALID,0,VALID,17.2738,VALID,165,VALID,0.781851,
2000-07-12, 03:30:00,VALID,916.745,VALID,0,VALID,94.69,VALID,-0.0169808,VALID,17.1606,VALID,176,VALID,0.773649,
2000-07-12, 03:31:01,VALID,916.729,VALID,0,VALID,95.0791,VALID,-0.0169808,VALID,17.1191,VALID,195,VALID,0.346073,
2000-07-12, 03:32:01,VALID,916.736,VALID,0,VALID,94.7447,VALID,-0.0169808,VALID,17.0381,VALID,204,VALID,0.0160061,
2000-07-12, 03:33:01,VALID,916.75,VALID,0,VALID,94.334,VALID,0,VALID,16.9509,VALID,204,VALID,0,
2000-07-12, 03:34:01,VALID,916.739,VALID,0,VALID,94.5235,VALID,0,VALID,16.8735,VALID,204,VALID,0,
2000-07-12, 03:35:01,VALID,916.75,VALID,0,VALID,94.7269,VALID,-0.0679233,VALID,16.7831,VALID,198,VALID,0,